Location: *
(46.1006°N, 1.8394°E)
Time: 13:32:51
(UTC+00:00)

RESURS DK-1 - Pass Details

Date: 20 September 2019
Orbit: 558 x 560 km, 69.9° (Epoch: 21 October)

Event Time Altitude Azimuth Distance (km) Brightness Sun altitude
Rises 19:24:48 0° 343° (NNW) 2,757 6.4 -16.1°
Reaches altitude 10° 19:27:40 10° 4° (N) 1,856 5.2 -16.6°
Maximum altitude 19:30:27 17° 46° (NE) 1,447 4.2 -17.0°
Enters shadow 19:30:47 17° 53° (NE) 1,454 4.2 -17.1°
